Tracking 19476 objects as of 17-Jan-2019
HD Live streaming from Space Station
objects crossing your sky now

ASC 1

Track ASC 1 now!
ASC 1 is classified as:


NORAD ID: 15994
Int'l Code: 1985-076C
Perigee: 35,744.1 km
Apogee: 35,832.9 km
Inclination: 15.2 °
Period: 1,435.8 minutes
Semi major axis: 42159 km
RCS: 4.4543 m2 (large)
Launch date: August 27, 1985
Source: United States (US)
Launch site: AIR FORCE EASTERN TEST RANGE (AFETR)
aabbcc
Your satellite tracking list
Your tracking list is empty




NASA's NSSDC Master Catalog

Two Line Element Set (TLE):
1 15994U 85076C   19015.45365605 -.00000227  00000-0  00000+0 0  9995
2 15994  15.1684   6.0895 0010523 328.6193 219.1141  1.00290543 90839
Source of the keplerian elements: AFSPC